Regional Weather Roundup
Issued by NWS

Home | Current Version | Previous Version | Graphics & Text | Print | Product List | Glossary Off
Versions: 1 2 3 4 5 6 7 8 9 10 11 12 13 14 15 16 17 18 19 20 21 22 23 24 25 26 27 28 29 30 31 32 33 34 35 36 37 38 39 40 41 42 43 44 45 46 47 48 49 50

000
ASUS43 KTOP 041659
RWRKS

WEATHER ROUNDUP FOR KANSAS
NATIONAL WEATHER SERVICE GOODLAND KS
1200 PM CDT MON MAY 04 2015

NOTE:  "FAIR" INDICATES FEW OR NO CLOUDS BELOW 12,000 FEET WITH NO
SIGNIFICANT WEATHER AND/OR OBSTRUCTIONS TO VISIBILITY.

KSZ001>006-013>018-027>032-041>047-041800-
NORTHWEST KANSAS

CITY           SKY/WX    TMP DP  RH WIND       PRES   REMARKS
GOODLAND       CLOUDY    59  46  62 NE13      30.10R
HAYS           CLOUDY    66  50  55 N10       30.05S
HILL CITY      LGT RAIN  61  52  72 NE8       30.07F
RUSSELL        CLOUDY    70  53  54 NW10      30.03R
$$

KSZ061>065-074>080-084>089-041800-
SOUTHWEST KANSAS

CITY           SKY/WX    TMP DP  RH WIND       PRES   REMARKS
DODGE CITY     PTSUNNY   75  55  49 SE10      30.04S
ELKHART          N/A     71  53  52 SE5         N/A
GARDEN CITY    MOSUNNY   72  53  51 SE13      30.03S
GREAT BEND     PTSUNNY   75  59  57 SE9       30.01S
LIBERAL        MOSUNNY   72  55  56 S10       30.06S
$$

KSZ066>073-081>083-090>101-041800-
SOUTHEAST KANSAS

CITY           SKY/WX    TMP DP  RH WIND       PRES   REMARKS
CHANUTE        SUNNY     79  62  56 SW15G21   30.08R
COFFEYVILLE    MOSUNNY   78  63  59 S14       30.08S
HUTCHINSON     MOSUNNY   78  60  53 S10       30.02S
MEDICINE LODGE   N/A     74  59  59 S8        30.02R
NEWTON         MOSUNNY   75  57  53 S8        30.06S
PARSONS        MOSUNNY   79  63  57 SW12      30.09S
WICHITA INTL   PTSUNNY   75  58  55 S13       30.04R
WICHITA JABRA  MOSUNNY   75  59  57 S9        30.04R
WINFIELD       MOSUNNY   79  62  56 S10       30.06R
$$

KSZ007>012-019>026-033>040-048>060-102>105-041800-
NORTHEAST KANSAS

CITY           SKY/WX    TMP DP  RH WIND       PRES   REMARKS
CONCORDIA      MOSUNNY   74  56  53 S6        30.03R
EMPORIA        MOSUNNY   79  60  52 S16       30.04S
LAWRENCE       MOSUNNY   76  61  59 S5        30.05R
MANHATTAN      PTSUNNY   78  60  53 S8        30.02R
OLATHE IND     MOSUNNY   75  61  61 S6        30.07R
OLATHE EXE     MOSUNNY   74  62  66 SW8       30.06R
SALINA         MOSUNNY   81  58  45 S8        30.01S
TOPEKA BILLARD MOSUNNY   77  62  59 SW9       30.04S
TOPEKA FORBES  MOSUNNY   78  62  57 S9        30.04S
$$



USA.gov is the U.S. government's official web portal to all federal, state and local government web resources and services.